www.pogodaiklimat.ru

Погода и климат >> Архив погоды >> Индонезия >> Намлеа


ПОГОДА в Намлеа

  • Прогноз погоды в Намлеа
  • Монитор погоды в Намлеа

АРХИВ ПОГОДЫ в Намлеа

Время (UTC), дата Ветер
(напр.,м/с)
 
Видим.   Явления Облачность Т
(С)
Тd
(С)
f
(%)
Тe
(С)
Тes
(С)
Комфортность P
(гПа)
Po
(гПа)
Тmin
(С)
Tmax
(С)
R
(мм)
R24
(мм)
S
(см)
21 16.09 Ю 3 10 км 6/3 500 м
[Cu med, cong Ac trans Ci sp]
+22.3 +21.1 93 +29 +29 очень
душно
1010.5 1008.9
00 17.09 Ю 2 11 км 3/3 500 м
[Cu med, cong Ac trans]
+27.7 +21.9 71 +36 +41 очень
душно
1012.2 1010.7 +22.2
03 17.09 ЮВ 4 12 км 5/3 540 м
[Cu med, cong Ac trans Ci fib]
+30.6 +23.8 67 +42 +51 опасность
перегрева
1011.4 1009.8
06 17.09 ЮВ 5 11 км 5/3 540 м
[Cu med, cong Ac trans Ci fib]
+30.5 +22.8 64 +40 +45 очень
душно
1009.6 1008.0
09 17.09 ЮВ 7 10 км 9/3 540 м
[Cu med, cong Ac trans Ci fib]
+27.9 +21.9 70 +36 +36 очень
душно
1010.0 1008.4
12 17.09 ЮВ 4 10 км 5/3 500 м
[Cu med, cong Ac trans Ci fib]
+26.2 +21.7 76 +34 +34 очень
душно
1011.9 1010.3 +31.0
15 17.09 Ю 2 10 км 4/3 500 м
[Cu med, cong Ac trans Ci fib]
+25.1 +22.4 85 +33 +33 очень
душно
1012.2 1010.6
18 17.09 Ю 2 10 км 5/3 540 м
[Cu med, cong Ac trans Ci fib]
+23.2 +21.6 91 +31 +31 очень
душно
1011.2 1009.6
21 17.09 ЮЗ 3 10 км 5/3 540 м
[Cu med, cong Ac trans Ci fib]
+22.0 +21.3 96 +29 +29 очень
душно
1011.9 1010.3
00 18.09 ЮЗ 4 11 км 4/3 500 м
[Cu med, cong Ac trans Ci fib]
+27.0 +21.9 74 +35 +39 очень
душно
1013.5 1012.0 +22.0
03 18.09 ЮВ 7 11 км 4/3 500 м
[Cu med, cong Ac trans Ci fib]
+31.2 +22.4 60 +41 +45 опасность
перегрева
1012.0 1010.4
06 18.09 ЮВ 5 11 км 4/3 500 м
[Cu med, cong Ac trans Ci fib]
+31.2 +22.1 58 +40 +45 очень
душно
1009.6 1008.1
09 18.09 ЮВ 5 11 км 4/3 500 м
[Cu med, cong Ac trans Ci fib]
+28.0 +22.4 72 +37 +37 очень
душно
1010.0 1008.4
12 18.09 ЮВ 4 10 км 5/3 500 м
[Cu med, cong Ac trans Ci sp]
+26.2 +22.6 81 +35 +35 очень
душно
1011.5 1009.9 +32.0
15 18.09 ЮЗ 3 10 км 4/3 500 м
[Cu med, cong Ac trans Ci fib]
+24.6 +21.5 83 +31 +31 очень
душно
1011.5 1009.9
18 18.09 ЮЗ 3 11 км 4/3 500 м
[Cu med, cong Ac trans Ci fib]
+22.6 +21.0 91 +30 +30 очень
душно
1011.1 1009.5
21 18.09 ЮЗ 3 11 км 4/3 500 м
[Cu med, cong Ac trans Ci fib]
+21.8 +20.5 92 +28 +28 душно 1011.8 1010.3
00 19.09 ЮЗ 4 11 км 4/3 500 м
[Cu med, cong Ac trans Ci fib]
+27.5 +20.7 66 +34 +38 очень
душно
1013.2 1011.6 +21.0
03 19.09 В 7 10 км 3/3 500 м
[Cu med, cong]
+30.8 +23.6 66 +42 +46 опасность
перегрева
1011.0 1009.4
06 19.09 В 7 10 км 3/3 500 м
[Cu med, cong]
+30.8 +22.6 62 +40 +44 очень
душно
1009.0 1007.4
09 19.09 ЮВ 5 10 км 3/3 500 м
[Cu med, cong]
+28.5 +21.6 66 +36 +37 очень
душно
1009.2 1007.6
12 19.09 ЮВ 3 10 км 3/3 500 м
[Cu med, cong]
+26.7 +20.9 71 +34 +34 очень
душно
1010.5 1009.0 +32.0
15 19.09 ЮЗ 3 10 км 3/3 500 м
[Cu med, cong]
+24.5 +21.4 83 +31 +31 очень
душно
1010.6 1009.0
18 19.09 Ю 2 10 км 5/3 500 м
[Cu med, cong Ac trans Ci fib]
+23.2 +21.8 92 +31 +31 очень
душно
1009.9 1008.3
21 19.09 ЮЗ 3 10 км 6/3 500 м
[Cu med, cong Ac trans Ci sp]
+23.1 +20.9 87 +31 +31 очень
душно
1010.9 1009.3
00 20.09 ЮЗ 4 8000 м 10/3 500 м
[Cu med, cong Ac As Ci sp]
+24.9 +21.1 79 +31 +33 очень
душно
1012.0 1010.4 +21.2
03 20.09 Ю 3 10 км 9/3 500 м
[Cu med, cong Ac trans Ci fib]
+29.5 +24.0 72 +41 +49 опасность
перегрева
1010.9 1009.3
06 20.09 ЮВ 6 10 км 4/3 540 м
[Cu med, cong Ac trans Ci fib]
+30.0 +24.2 71 +42 +46 опасность
перегрева
1008.5 1007.0
09 20.09 ЮВ 6 10 км 8/3 540 м
[Cu med, cong Ac trans Ci sp]
+27.2 +23.3 79 +37 +37 очень
душно
1009.3 1007.7
12 20.09 ЮВ 4 10 км 5/3 500 м
[Cu med, cong Ac trans Ci fib]
+25.9 +23.3 86 +35 +35 очень
душно
1011.3 1009.7 +30.8
15 20.09 Ю 2 10 км 9/3 500 м
[Cu med, cong Ac trans Ci fib]
+25.4 +22.7 85 +33 +33 очень
душно
1010.8 1009.3
18 20.09 ЮЗ 2 10 км 10/3 540 м
[Cu med, cong Ac trans Ci sp]
+24.2 +22.0 88 +31 +31 очень
душно
1009.6 1008.0
21 20.09 ЮЗ 2 10 км 10/3 540 м
[Cu med, cong Ac As Ci sp]
+24.0 +22.4 91 +31 +31 очень
душно
1010.2 1008.6
00 21.09 ЮВ 3 10 км 9/3 540 м
[Cu med, cong Ac trans Ci sp]
+27.2 +23.3 79 +37 +40 очень
душно
1012.0 1010.4 +23.0
03 21.09 ЮВ 6 11 км 6/3 540 м
[Cu med, cong Ac trans Ci fib]
+30.6 +24.3 69 +43 +47 опасность
перегрева
1010.2 1008.6
06 21.09 В 8 11 км 4/3 540 м
[Cu med, cong Ac trans Ci fib]
+30.4 +24.4 70 +42 +44 опасность
перегрева
1008.1 1006.5
09 21.09 ЮВ 6 10 км 6/3 540 м
[Cu med, cong Ac trans Ci sp]
+27.4 +23.0 77 +37 +37 очень
душно
1008.7 1007.1
12 21.09 ЮВ 3 10 км 5/3 500 м
[Cu med, cong Ac trans Ci sp]
+26.4 +23.7 85 +36 +36 очень
душно
1011.2 1009.6 +31.0
15 21.09 Ю 2 10 км 5/3 500 м
[Cu med, cong Ac trans Ci sp]
+25.4 +22.7 85 +33 +33 очень
душно
1011.4 1009.8
18 21.09 ЮЗ 2 10 км 9/3 500 м
[Cu med, cong Ac trans Ci sp]
+24.6 +22.4 88 +32 +32 очень
душно
1010.3 1008.7
21 21.09 ЮЗ 3 10 км 5/3 500 м
[Cu med, cong Ac trans Ci sp]
+23.0 +21.7 92 +31 +31 очень
душно
1011.1 1009.5
00 22.09 штиль 0 10 км 8/3 500 м
[Cu med, cong Ac trans Ci sp]
+27.0 +23.0 79 +36 +41 очень
душно
1012.6 1011.0 +22.0
03 22.09 ЮВ 6 10 км 8/3 540 м
[Cu med, cong Ac trans Ci sp]
+30.6 +24.0 68 +42 +46 опасность
перегрева
1011.5 1010.0
06 22.09 ЮВ 4 10 км 6/3 540 м
[Cu med, cong Ac trans Ci sp]
+30.1 +23.9 69 +41 +47 опасность
перегрева
1009.5 1007.9
09 22.09 ЮВ 5 10 км 5/3 540 м
[Cu med, cong Ac trans Ci fib]
+27.2 +22.3 75 +36 +36 очень
душно
1009.9 1008.4
12 22.09 ЮВ 3 10 км 5/3 540 м
[Cu med, cong Ac trans Ci fib]
+25.6 +22.1 81 +33 +33 очень
душно
1012.2 1010.6 +31.5
15 22.09 Ю 2 10 км 5/3 500 м
[Cu med, cong Ac trans Ci fib]
+24.0 +21.4 85 +30 +30 очень
душно
1012.4 1010.8
18 22.09 Ю 2 10 км 5/3 500 м
[Cu med, cong Ac trans Ci fib]
+21.9 +20.3 91 +28 +28 душно 1011.5 1009.9
21 22.09 ЮЗ 2 10 км 4/3 500 м
[Cu med, cong Ac trans Ci fib]
+21.4 +20.5 95 +27 +27 душно 1012.6 1011.0
00 23.09 Ю 2 10 км 3/3 500 м
[Cu med, cong]
+26.7 +21.2 72 +34 +39 очень
душно
1013.8 1012.2 +20.9
03 23.09 В 6 12 км 3/3 480 м
[Cu med, cong]
+31.0 +22.0 59 +40 +45 очень
душно
1012.2 1010.7
06 23.09 ЮВ 5 12 км 3/3 480 м
[Cu med, cong]
+31.2 +22.1 58 +40 +45 очень
душно
1010.2 1008.6
09 23.09 В 3 10 км 3/3 480 м
[Cu med, cong]
+28.8 +22.9 70 +38 +38 очень
душно
1010.1 1008.5
12 23.09 ЮВ 3 10 км 5/3 500 м
[Cu med, cong Ci fib]
+26.2 +20.7 72 +33 +33 очень
душно
1012.1 1010.6 +31.4
15 23.09 ЮЗ 3 10 км 4/3 500 м
[Cu med, cong Ac trans Ci fib]
+22.8 +20.9 89 +30 +30 очень
душно
1012.0 1010.4
18 23.09 ЮЗ 3 10 км 5/3 500 м
[Cu med, cong Ac trans Ci fib]
+21.4 +19.3 88 +26 +26 душно 1010.6 1009.1

 

Местоположение метеостанции Намлеа (Индонезия): широта -3.25 долгота 127.08 высота над уровнем моря 20 м.

В архиве по умолчанию представлена погода в Намлеа за последнюю неделю. Архивные данные за месяц целиком и за предыдущие месяцы, начиная с января 2011 года, Вы можете получить, выбрав интересующий диапазон дат из раскрывающегося списка и нажав кнопку "Ввод!".


*Определитесь, кто Вы:
робот инопланетянин человек

Внимание! Время в таблицах - всемирное. Для получения местного времени необходимо прибавить поправку, которая равна 9 ч.

Смотрите также архив погоды в соседних городах и на ближайших метеорологических станциях:

Погода в Амбоне (Индонезия) (122 км)
Погода на Санане (Индонезия) (177 км)
Погода в Тауне (Индонезия) (182 км)
Погода в Амахаи (Индонезия) (200 км)
Погода в Лабухе (Индонезия) (295 км)
Погода в Неира (Индонезия) (344 км)
Погода в Гесере (Индонезия) (421 км)
Погода в Тернате (Индонезия) (448 км)
Погода в Аэропорту Соронг-Джефман (Индонезия) (517 км)
Погода в Кендари (Индонезия) (525 км)

Пояснения к столбцам:

Ветер - указаны скорость ветра в м/с - средняя за 10 мин, порывы в срок и между сроками (в фигурных скобках) и направление, откуда дует ветер: С - северный, СВ - северо-восточный, В - восточный, ЮВ - юго-восточный, Ю - южный, ЮЗ - юго-западный, З - западный, СЗ - северо-западный.
Видимость - горизонтальная дальность видимости в метрах или километрах. При видимости от 1 до 10 км при отсутствии осадков обычно наблюдается дымка, при ухудшении видимости до 1 км и менее - туман. В сухую погоду видимость может ухудшаться дымом, пылью или мглою.
Явления - указаны атмосферные явления, наблюдавшиеся в срок или в последний час перед сроком; фигурными скобками обозначены явления, наблюдавшиеся между сроками (за 1-3 часа до срока); квадратными скобками обозначены град или гололедные отложения с указанием их диаметра в мм.
Облачность - указаны через наклонную черту общая и нижняя облачность в баллах и высота нижней границы облаков в метрах; квадратными скобками обозначены формы облаков: Ci - перистые, Cs - перисто-слоистые, Cc - перисто-кучевые, Ac - высококучевые, As - высокослоистые, Sc - слоисто-кучевые, Ns - слоисто-дождевые, Cu - кучевые, Cb - кучево-дождевые. Подробнее классификацию облаков см. в Атласе облаков (PDF).
T - Температура воздуха - температура, измеренная на высоте 2 м над землей.
Td - Температура точки росы - температура, при понижении до которой содержащийся в воздухе водяной пар достигнет насыщения.
f - Относительная влажность воздуха - влажноcть воздуха, измеренная на высоте 2 м над землей.
Te - Эффективная температура - температура, которую ощущает одетый по сезону человек в тени. Характеристика душности погоды. При расчете учитывается влияние влажности воздуха и скорости ветра на теплоощущения человека.
Tes - Эффективная температура на солнце - температура, которую ощущает человек, с поправкой на солнечный нагрев. Характеристика знойности погоды. Зависит от высоты солнца над горизонтом, облачности и скорости ветра. Ночью, в пасмурную погоду, а также при ветре 12 м/с и более поправка равна нулю.
P - Атмосферное давление - приведенное к уровню моря атмосферное давление.
Po - Атмосферное давление - измеренное на уровне метеостанции атмосферное давление.
Tmin - Минимальная температура - минимум температуры воздуха на высоте 2 м над землей.
Tmax - Максимальная температура - максимум температуры воздуха на высоте 2 м над землей.
R - Количество осадков - Количество выпавших осадков за период времени, мм. При наведении курсора мыши на число - период времени, за который выпало указанное количество осадков.
R24 - Количество осадков - Количество выпавших осадков за 24 часа, мм.
S - Снежный покров - Высота снежного покрова, см. При наведении курсора мыши на число - состояние снежного покрова и степень покрытия местности в баллах.